Home   Weather   Tacoma   Past weeks

Flag for USA Past Weather in Tacoma, Washington, USA — Yesterday and Last 2 Weeks

Now
49 °F

Rain. Fog.


Feels Like: 47 °F
Forecast: 46 / 52 °F
Wind: 5 mph from South

Location: Tacoma Narrows Airport

Current Time: Jan 18, 2017 at 8:31:15 am

Latest Report: Jan 18, 2017 at 7:53 am


Visibility: 4 mi

Pressure: 29.33 "Hg

Humidity: 100%

Dew Point: 49 °F

Location of TacomaLocation

Past Weather in Tacoma — Graph

°F

Tacoma Temperature Yesterday

Maximum temperature yesterday: 50 °F (at 9:53 pm)
Minimum temperature yesterday: 38 °F (at 5:53 am)
Average temperature yesterday: 42 °F

High & Low Weather Summary for the Past Weeks

 TemperatureHumidityPressure
High50 °F (Jan 17, 9:53 pm)100% (Jan 8, 5:25 pm)30.45 "Hg (Jan 8, 5:25 pm)
Low22 °F (Jan 6, 6:53 am)25% (Jan 4, 1:53 pm)29.34 "Hg (Jan 18, 6:53 am)
Average35 °F74%30.00 "Hg
* Reported Jan 3 6:53 am — Jan 18 6:53 am, Tacoma, Weather by CustomWeather, © 2017

Note: Actual official high and low records may vary slightly from our data, if they occured in-between our weather recording intervals... More about our weather records

Advertising

Tacoma Weather History for the Previous 24 Hours

Scroll right to see more
 ConditionsComfort  
Time TempWeatherWind HumidityBarometerVisibility
6:53 am
Wed, Jan 18
48 °FLight rain. Fog.3 mph100%29.34 "Hg6 mi
6:24 am47 °FFog.No wind100%29.34 "Hg3 mi
6:20 am47 °FFog.5 mph100%29.34 "Hg1 mi
5:53 am49 °FOvercast.3 mph100%29.36 "Hg10 mi
5:15 am48 °FLight rain. Mostly cloudy.No wind100%29.37 "Hg9 mi
4:53 am48 °FLight rain. Low clouds.No wind100%29.39 "Hg10 mi
3:53 am48 °FLight rain. Fog.No wind100%29.43 "Hg5 mi
3:19 am49 °FLight rain. Mostly cloudy.5 mph100%29.44 "Hg8 mi
2:53 am49 °FRain. Fog.5 mph100%29.45 "Hg5 mi
1:53 am49 °FLight rain. Overcast.6 mph100%29.47 "Hg8 mi
12:53 am50 °FLight rain. Overcast.16 mph93%29.49 "Hg10 mi
11:53 pm
Tue, Jan 17
49 °FLight rain. Overcast.12 mph97%29.51 "Hg10 mi
10:53 pm49 °FLight rain. Mostly cloudy.18 mph97%29.53 "Hg9 mi
10:28 pm49 °FLight rain. Mostly cloudy.16 mph97%29.53 "Hg10 mi
9:53 pm50 °FLight rain. Mostly cloudy.15 mph93%29.52 "Hg9 mi
8:53 pm47 °FLight rain. Overcast.9 mph100%29.52 "Hg8 mi
8:00 pm42 °FLight rain. Fog.No wind100%29.52 "Hg3 mi
7:36 pm42 °FLight rain. Fog.5 mph100%29.52 "Hg3 mi
6:53 pm42 °FLight rain. Fog.No wind100%29.53 "Hg5 mi
5:53 pm41 °FLight rain. Fog.6 mph100%29.54 "Hg3 mi
4:53 pm41 °FLight rain. Fog.3 mph100%29.56 "Hg1 mi
3:53 pm41 °FRain. Fog.No wind100%29.57 "Hg1 mi
3:17 pm41 °FRain. Fog.7 mph100%29.60 "Hg1 mi
2:59 pm41 °FRain. Fog.6 mph100%29.59 "Hg1 mi
1:56 pm41 °FRain. Fog.5 mph96%29.65 "Hg2 mi
1:36 pm41 °FRain. Fog.3 mph100%29.68 "Hg2 mi
12:53 pm42 °FLight rain. Fog.3 mph92%29.71 "Hg6 mi
11:53 am42 °FLight rain. Mostly cloudy.6 mph85%29.75 "Hg8 mi
10:53 am44 °FMostly cloudy.5 mph68%29.76 "Hg10 mi
9:53 am42 °FMore clouds than sun.5 mph76%29.76 "Hg10 mi
8:53 am40 °FOvercast.7 mph89%29.77 "Hg10 mi
Weather by CustomWeather, © 2017

See weather overviewHow to use our weather pages